Location: Ward Pound Ridge Reservation
(41.2500°N, 73.6000°W)
Time: 02:07:11
(UTC-05:00)

Vanguard 2 Rocket - Visible Passes

Search period start: 13 December 2017 00:00
Search period end: 23 December 2017 00:00
Orbit: 555 x 3326 km, 32.9° (Epoch: 12 December)

Date Brightness Start Highest point End Pass type
(mag) Time Alt. Az. Time Alt. Az. Time Alt. Az.
13 Dec 10.7 01:47:23 12° SSE 01:47:23 12° SSE 01:48:19 10° SSE visible
13 Dec 10.5 03:53:13 11° SSW 03:53:13 11° SSW 03:54:19 10° SSW visible
13 Dec 9.6 17:33:04 10° SSW 17:42:17 31° SE 17:53:14 15° E visible
13 Dec 9.2 19:43:48 10° WSW 19:56:47 58° SSE 19:59:02 56° SE visible
13 Dec 10.0 21:57:32 10° W 22:04:50 36° WSW 22:04:50 36° WSW visible
14 Dec11.100:51:18SE00:51:18SE00:10:38Wvisible
14 Dec 10.6 02:57:06 13° S 02:57:06 13° S 02:58:38 10° S visible
14 Dec 9.3 18:44:51 10° SW 18:56:02 50° SSE 19:02:49 36° ESE visible
14 Dec 9.4 20:57:34 10° WSW 21:08:36 57° SW 21:08:36 57° SW visible
14 Dec 10.7 23:12:30 10° W 23:14:24 15° W 23:14:24 15° W visible
15 Dec 9.3 17:46:25 10° SSW 17:55:51 40° SSE 18:06:34 19° E visible
15 Dec 9.2 19:58:01 10° WSW 20:10:54 63° S 20:12:23 61° SSE visible
15 Dec 10.1 22:12:00 10° W 22:18:10 31° WSW 22:18:10 31° WSW visible
16 Dec11.101:04:48SSE01:04:48SSE00:23:58Wvisible
16 Dec 9.5 16:48:34 10° SSW 16:56:14 28° SE 17:07:49 10° E visible
16 Dec 9.1 18:58:54 10° WSW 19:10:01 57° SSE 19:16:08 41° ESE visible
16 Dec 9.5 21:11:59 10° W 21:21:56 52° SW 21:21:56 52° SW visible
16 Dec 10.8 23:27:06 10° W 23:27:44 12° W 23:27:44 12° W visible
17 Dec 9.1 18:00:12 10° SW 18:09:40 48° SSE 18:19:54 22° E visible
17 Dec 9.1 20:12:24 10° WSW 20:25:09 64° S 20:25:42 63° S visible
17 Dec 10.3 22:26:33 10° W 22:31:30 26° W 22:31:30 26° W visible
18 Dec 9.2 17:01:59 10° SSW 17:09:52 37° SSE 17:22:40 10° E visible
18 Dec 9.0 19:13:10 10° WSW 19:24:11 61° S 19:29:29 46° ESE visible
18 Dec 9.6 21:26:30 10° W 21:35:17 45° WSW 21:35:17 45° WSW visible
19 Dec 8.9 18:14:19 10° WSW 18:23:43 54° SSE 18:33:16 25° E visible
19 Dec 9.2 20:26:51 10° W 20:39:04 61° S 20:39:04 61° S visible
19 Dec 10.4 22:41:14 10° W 22:44:52 21° W 22:44:52 21° W visible
20 Dec 8.9 17:15:50 10° SW 17:23:45 45° SSE 17:37:05 10° E visible
20 Dec 9.0 19:27:35 10° WSW 19:38:28 61° S 19:42:53 49° SE visible
20 Dec 9.8 21:41:05 10° W 21:48:41 38° WSW 21:48:41 38° WSW visible
21 Dec 8.8 18:28:37 10° WSW 18:37:55 58° S 18:46:44 28° ESE visible
21 Dec 9.3 20:41:24 10° W 20:52:33 55° SSW 20:52:33 55° SSW visible
21 Dec 10.6 22:56:12 10° W 22:58:21 16° W 22:58:21 16° W visible
22 Dec 8.8 17:30:00 10° WSW 17:37:51 51° SSE 17:50:37 12° E visible
22 Dec 9.0 19:42:05 10° W 19:52:47 58° S 19:56:26 50° SE visible
22 Dec 10.0 21:55:51 10° W 22:02:15 31° WSW 22:02:15 31° WSW visible
